Probability
0 0 0 0 0 0 0 0 0 0 0 0 0 3 3 0 0 0 0 0 0 0 0 0 0 6 6 6 6 3 3 6 6 3 3 10 10 6 10 6 6 6 6 6
0 0 0 0 0 0 0 0 0 0 0 3 3 3 3 0 0 3 3 3 3 0 0 0 0 0 3 3 3 6 6 6 6 3 10 10 10 6 6 6 6 10 10 6
0 0 0 0 0 0 0 0 0 0 0 0 0 0 3 3 0 3 3 3 3 0 0 0 3 3 0 6 10 6 6 6 6 6 3 6 3 3 3 6 6 10 13 13
0 0 0 0 0 0 0 0 0 0 0 0 0 0 0 3 3 3 3 3 10 10 3 3 3 3 6 6 6 6 6 6 6 3 3 3 0 3 6 3 6 10 13 13
0 0 0 0 0 0 0 0 0 0 0 0 0 0 0 0 3 6 6 10 10 6 6 3 3 6 6 6 6 6 6 6 10 3 3 3 6 6 3 6 6 10 13 13
0 0 0 0 0 0 0 0 0 0 0 0 0 0 0 0 0 3 10 10 6 6 6 3 3 6 6 6 6 13 6 3 3 3 3 6 6 3 3 6 6 10 6 10
0 0 0 0 0 0 0 0 0 0 0 0 0 0 0 0 3 10 13 10 6 6 6 3 6 6 13 13 16 16 6 6 3 6 6 3 10 10 6 6 6 6 10 13
0 0 0 0 0 0 0 0 0 0 0 0 0 0 0 3 6 10 10 10 13 10 6 10 10 13 10 16 16 10 10 10 6 6 6 3 10 10 10 10 10 10 10 10
0 0 0 0 0 0 0 0 0 0 0 0 0 0 0 3 6 13 13 13 13 10 10 10 13 19 16 19 10 10 10 13 10 10 6 6 10 13 13 10 10 6 10 10
0 0 0 0 0 0 0 0 0 0 0 0 0 0 0 3 6 13 13 16 6 6 6 6 6 19 23 23 19 13 13 16 10 13 16 13 13 16 16 13 13 13 16 13
0 0 0 0 0 0 0 0 0 0 0 0 0 0 0 0 6 10 10 13 10 10 6 3 6 16 23 19 13 13 13 13 13 26 23 16 10 10 10 13 23 26 19 16
0 0 0 0 0 0 0 0 0 0 0 0 0 0 0 0 3 10 10 10 10 10 6 3 6 6 19 19 19 16 23 23 23 26 23 19 16 16 13 19 19 19 19 19
0 0 0 0 0 0 0 0 0 0 0 0 0 0 0 6 6 10 10 10 10 6 6 6 10 16 13 16 16 19 26 26 19 23 19 19 19 19 19 23 23 23 23 19
0 0 0 0 0 0 0 0 0 0 0 0 0 0 0 3 10 13 13 10 10 10 10 13 13 16 13 16 13 16 23 23 19 16 16 16 19 16 16 16 19 19 16 23
0 0 0 0 0 0 0 0 0 0 0 0 0 0 0 3 3 10 10 6 6 13 16 13 10 13 13 13 13 16 23 23 13 23 23 23 16 13 16 16 16 16 16 13
0 0 0 0 0 0 0 0 0 0 0 0 0 0 0 3 3 13 13 13 16 16 19 13 10 13 13 13 19 16 16 19 19 19 23 23 23 19 16 16 16 13 10 10
0 0 0 0 0 0 0 0 0 0 0 0 0 0 0 6 10 13 13 10 13 13 10 3 6 10 13 13 16 13 16 19 16 19 13 13 13 23 16 19 10 13 10 10
0 0 0 0 0 0 0 0 0 0 0 0 0 3 6 6 10 10 10 10 10 6 6 3 3 6 10 10 10 13 19 19 19 13 13 16 16 16 19 16 19 16 10 6
0 0 0 0 0 0 0 0 0 0 3 3 3 6 10 6 6 3 3 6 6 3 3 3 3 6 10 6 13 16 23 19 16 13 13 16 19 23 23 16 19 23 19 16
0 0 0 0 0 0 0 0 0 0 0 3 6 10 10 6 6 3 0 0 3 3 6 6 6 10 13 10 13 13 13 16 16 13 23 23 16 19 23 19 16 16 13 13
0 0 0 0 0 0 0 0 0 0 0 3 6 6 6 0 0 0 0 3 3 3 6 6 10 10 13 6 10 13 13 13 19 10 16 19 19 23 26 23 19 19 16 16
0 0 0 0 0 0 0 0 0 0 0 3 6 3 0 0 3 3 3 3 6 6 6 10 6 10 13 13 10 13 13 10 13 10 10 16 16 19 23 16 16 16 13 13
0 0 0 0 0 0 0 0 0 0 3 3 3 0 0 0 3 6 6 6 10 6 10 3 6 13 16 16 10 16 13 10 6 10 13 13 13 13 13 16 16 16 13 13
0 0 0 0 0 0 0 0 0 0 0 0 0 0 0 0 6 6 6 6 10 19 13 10 10 10 13 16 13 10 10 13 10 10 13 10 10 10 10 10 13 13 13 13
0 0 0 0 0 0 3 3 0 0 0 0 3 3 0 3 6 6 6 6 10 19 16 13 10 13 13 13 16 13 16 19 19 13 10 13 10 10 10 10 13 13 13 6
0 0 0 0 0 0 3 3 0 3 3 3 6 3 6 3 3 3 10 6 10 13 10 13 13 10 16 16 16 13 16 16 19 19 13 10 6 6 10 10 6 6 6 6
Height
5909 5912 5913 5915 5916 5917 5918 5919 5919 5920 5921 5921 5921 5921 5921 5920 5919 5919 5918 5916 5915 5914 5912 5910 5908 5906 5904 5902 5901 5899 5898 5896 5895 5894 5892 5891 5890 5889 5887 5886 5885 5884 5883 5883
5908 5910 5912 5913 5915 5916 5918 5919 5919 5920 5920 5921 5921 5921 5922 5921 5920 5920 5919 5918 5917 5915 5913 5912 5910 5908 5906 5904 5903 5901 5900 5899 5897 5895 5894 5892 5891 5890 5888 5887 5885 5884 5883 5883
5905 5908 5909 5911 5913 5915 5916 5918 5919 5920 5920 5920 5921 5922 5922 5921 5921 5920 5919 5918 5917 5916 5915 5913 5911 5910 5908 5906 5905 5903 5902 5900 5899 5897 5895 5894 5892 5890 5889 5887 5886 5885 5884 5883
5902 5904 5906 5909 5911 5913 5915 5916 5917 5918 5919 5919 5921 5921 5921 5921 5921 5920 5920 5919 5918 5917 5916 5914 5913 5911 5910 5908 5906 5905 5903 5901 5900 5898 5896 5894 5893 5891 5890 5888 5887 5885 5884 5883
5898 5901 5903 5906 5909 5911 5913 5914 5915 5916 5917 5918 5919 5919 5921 5920 5920 5920 5919 5919 5918 5917 5916 5915 5913 5912 5911 5909 5907 5906 5904 5902 5901 5899 5897 5896 5894 5892 5890 5889 5887 5886 5884 5883
5894 5897 5900 5903 5906 5908 5910 5912 5913 5913 5915 5916 5917 5918 5919 5919 5919 5919 5918 5918 5917 5917 5916 5915 5913 5912 5911 5909 5908 5906 5905 5903 5901 5900 5898 5897 5895 5893 5891 5889 5888 5886 5885 5884
5890 5893 5896 5899 5902 5904 5907 5909 5910 5911 5912 5914 5915 5915 5917 5917 5917 5917 5917 5917 5916 5916 5915 5914 5913 5911 5910 5909 5908 5906 5905 5903 5902 5900 5899 5897 5896 5894 5892 5890 5888 5886 5885 5884
5885 5889 5892 5895 5898 5901 5903 5905 5907 5909 5910 5911 5911 5912 5915 5915 5915 5915 5915 5915 5915 5914 5914 5913 5912 5911 5910 5909 5907 5906 5905 5903 5902 5900 5899 5898 5896 5894 5892 5890 5888 5887 5885 5884
5880 5884 5888 5891 5894 5897 5898 5900 5903 5905 5906 5907 5908 5910 5912 5912 5913 5913 5913 5913 5913 5913 5912 5911 5911 5910 5909 5908 5907 5905 5904 5903 5901 5900 5898 5897 5896 5894 5892 5890 5888 5887 5885 5884
5874 5879 5882 5885 5888 5891 5894 5896 5898 5900 5901 5902 5904 5906 5908 5909 5910 5911 5911 5911 5911 5910 5910 5909 5909 5908 5907 5906 5905 5904 5903 5902 5900 5899 5898 5896 5895 5893 5891 5890 5888 5886 5885 5884
5868 5873 5877 5880 5882 5885 5888 5891 5892 5895 5897 5898 5900 5904 5905 5906 5906 5907 5908 5908 5908 5908 5907 5907 5906 5906 5905 5904 5903 5902 5901 5900 5899 5897 5896 5895 5893 5892 5890 5889 5887 5886 5884 5883
5861 5866 5869 5874 5877 5879 5882 5885 5888 5890 5892 5893 5895 5901 5900 5901 5902 5903 5904 5905 5905 5905 5904 5904 5903 5903 5902 5901 5900 5899 5899 5898 5897 5895 5894 5893 5892 5890 5889 5888 5886 5885 5883 5882
5854 5858 5862 5866 5872 5874 5876 5879 5882 5884 5886 5888 5890 5896 5896 5897 5898 5899 5900 5900 5900 5901 5901 5900 5900 5899 5899 5898 5898 5897 5896 5894 5893 5892 5891 5890 5889 5888 5887 5885 5884 5883 5881 5880
5847 5851 5856 5860 5864 5867 5870 5873 5876 5878 5880 5882 5885 5888 5891 5892 5893 5894 5895 5895 5896 5896 5896 5896 5896 5895 5895 5895 5894 5893 5892 5891 5890 5889 5887 5887 5886 5885 5884 5883 5881 5880 5878 5877
5839 5843 5848 5852 5856 5860 5863 5866 5869 5872 5874 5876 5879 5881 5884 5886 5888 5889 5890 5890 5891 5891 5892 5892 5891 5891 5891 5891 5890 5889 5888 5887 5886 5885 5884 5883 5882 5881 5880 5879 5878 5877 5875 5874
5831 5836 5840 5844 5848 5852 5855 5859 5862 5864 5867 5869 5872 5875 5877 5879 5881 5882 5884 5885 5885 5886 5887 5887 5886 5886 5886 5886 5885 5885 5884 5883 5881 5880 5879 5879 5878 5877 5876 5875 5874 5873 5872 5871
5824 5828 5832 5836 5840 5843 5846 5851 5854 5857 5859 5862 5864 5868 5870 5872 5874 5875 5877 5878 5879 5880 5880 5881 5881 5881 5881 5881 5880 5880 5879 5878 5877 5876 5875 5874 5874 5873 5872 5871 5870 5869 5868 5866
5815 5819 5823 5827 5832 5834 5841 5844 5846 5849 5851 5854 5857 5860 5862 5865 5867 5868 5870 5871 5872 5873 5874 5874 5874 5875 5874 5874 5874 5874 5874 5873 5872 5871 5870 5869 5869 5868 5867 5866 5865 5865 5863 5862
5806 5811 5814 5818 5821 5826 5831 5835 5837 5840 5843 5846 5848 5851 5854 5856 5858 5860 5862 5863 5864 5865 5866 5867 5867 5867 5867 5867 5868 5868 5868 5867 5866 5865 5865 5864 5863 5862 5861 5861 5860 5859 5858 5856
5797 5801 5806 5809 5812 5816 5823 5826 5828 5832 5834 5838 5840 5842 5845 5847 5850 5853 5853 5855 5856 5857 5858 5859 5860 5860 5860 5860 5860 5860 5860 5860 5859 5858 5858 5857 5856 5856 5855 5854 5853 5852 5851 5850
5788 5792 5796 5799 5802 5807 5812 5816 5819 5823 5826 5829 5831 5833 5836 5838 5841 5843 5844 5846 5847 5849 5850 5851 5852 5852 5852 5853 5853 5853 5852 5851 5851 5850 5850 5849 5849 5848 5848 5847 5846 5845 5844 5843
5779 5783 5786 5790 5793 5800 5803 5806 5810 5813 5816 5819 5821 5824 5826 5829 5831 5833 5835 5837 5839 5840 5842 5843 5843 5844 5844 5844 5844 5845 5844 5843 5843 5842 5842 5841 5840 5840 5839 5839 5838 5838 5836 5835
5769 5774 5777 5782 5787 5790 5793 5797 5800 5803 5806 5809 5812 5814 5817 5820 5822 5824 5826 5828 5830 5831 5832 5833 5834 5835 5836 5836 5836 5836 5836 5835 5834 5834 5834 5833 5832 5831 5831 5830 5830 5829 5828 5827
5759 5763 5767 5772 5777 5780 5784 5787 5790 5793 5796 5799 5802 5805 5807 5809 5812 5814 5816 5818 5820 5821 5822 5823 5824 5825 5826 5827 5827 5827 5826 5826 5825 5825 5825 5824 5823 5823 5822 5821 5821 5820 5819 5818
5750 5754 5758 5762 5767 5770 5773 5777 5780 5783 5786 5789 5792 5795 5797 5799 5802 5804 5806 5808 5809 5811 5812 5813 5814 5815 5816 5817 5817 5817 5816 5816 5816 5815 5815 5814 5814 5813 5812 5812 5812 5810 5810 5809
5741 5745 5749 5753 5757 5760 5764 5767 5770 5773 5776 5779 5782 5785 5787 5789 5791 5793 5795 5797 5798 5800 5801 5803 5804 5804 5805 5806 5806 5807 5806 5806 5805 5805 5805 5804 5804 5804 5803 5803 5802 5801 5801 5800
Wind_Speed
17 15 13 11 11 9 7 5 3 3 1 0 2 4 6 8 9 10 11 12 13 13 14 16 16 16 16 16 16 15 15 14 14 14 13 13 12 10 10 9 8 6 6 5
19 17 15 14 13 11 9 7 5 4 4 3 2 2 4 6 7 8 9 10 11 11 13 14 15 15 16 16 15 15 14 14 14 14 14 13 12 11 11 10 8 7 6 6
21 19 18 16 15 13 11 10 9 7 6 5 4 2 3 4 6 7 8 9 9 9 10 12 13 14 14 15 15 14 14 14 14 13 13 13 12 12 11 10 9 8 7 6
23 22 20 18 16 15 14 13 11 10 9 7 6 4 3 5 5 7 8 8 8 8 9 10 11 12 13 13 14 14 13 13 14 13 12 12 12 11 10 9 8 8 8 7
25 24 22 20 18 16 15 15 14 12 11 10 9 7 5 5 6 6 7 7 7 7 7 8 9 10 11 11 12 13 13 13 13 13 12 12 11 11 11 8 8 8 7 7
27 26 25 23 21 20 18 17 17 16 14 13 11 9 7 6 7 7 7 7 7 6 6 7 7 8 10 10 11 11 11 11 12 12 12 12 12 12 11 9 8 7 6 6
29 28 27 25 24 22 21 19 19 18 16 14 13 12 9 8 8 8 8 8 7 6 6 7 7 8 9 9 10 10 10 10 11 11 11 11 11 11 11 10 9 8 7 6
31 29 28 27 26 24 23 21 20 20 18 16 15 14 11 10 9 9 10 9 8 7 7 7 8 8 8 9 9 9 10 10 10 11 11 11 11 11 11 10 9 8 7 6
31 30 29 28 27 26 25 24 22 22 20 19 18 15 13 12 10 10 10 10 9 8 8 8 8 8 8 9 9 9 10 10 10 10 11 11 11 11 11 10 9 8 7 6
33 31 30 29 29 29 27 25 24 23 23 22 20 18 16 14 13 12 11 10 9 9 9 9 8 8 9 9 9 10 11 11 11 11 11 11 11 11 10 9 9 8 7 7
34 33 31 31 31 29 29 28 27 25 25 24 23 20 17 16 15 14 13 12 11 11 10 9 9 10 10 9 10 11 11 11 12 12 12 11 11 11 10 9 9 8 8 8
35 34 33 32 32 31 31 30 29 28 27 26 25 21 19 19 18 17 16 15 13 13 12 11 10 10 10 10 11 12 13 12 13 13 13 12 12 11 10 10 10 10 10 10
36 36 35 34 34 33 33 32 31 30 30 29 27 23 21 21 20 19 18 17 16 15 14 13 12 11 11 11 12 13 14 14 13 13 13 13 12 12 11 11 12 12 12 11
37 37 37 35 34 33 33 33 32 32 32 31 28 25 23 22 21 20 20 18 17 17 16 15 15 14 14 13 13 14 15 15 14 14 14 14 13 13 13 13 13 13 13 13
38 38 37 36 35 34 34 33 34 34 33 32 30 28 25 24 23 21 21 20 18 18 17 16 16 16 16 16 16 16 16 16 17 16 15 15 15 14 15 14 14 14 14 14
39 39 38 38 37 36 36 35 34 34 34 33 31 30 27 26 26 24 23 21 20 19 19 19 19 19 19 19 18 18 18 18 18 17 17 17 16 16 16 16 16 16 17 17
40 40 39 39 38 37 38 36 35 35 35 34 33 31 30 29 28 27 26 25 23 23 22 21 22 22 22 21 20 19 19 19 19 19 19 19 18 18 17 17 17 18 18 18
40 40 40 39 39 40 39 37 36 36 36 35 34 33 31 30 29 29 28 28 27 25 24 23 23 24 24 23 23 22 21 21 22 22 21 21 20 19 19 19 19 20 20 20
41 40 40 40 41 41 41 39 38 37 36 35 35 33 32 32 31 30 29 29 29 28 26 25 25 25 25 25 25 24 23 24 24 24 24 23 22 22 22 21 21 21 22 22
42 41 41 41 42 41 40 39 39 39 39 37 36 35 33 32 32 31 31 31 30 29 29 28 27 27 27 27 27 26 26 26 26 25 26 25 25 24 24 24 24 23 24 24
41 41 41 40 41 41 40 40 40 41 39 37 37 35 34 33 33 33 33 32 32 31 30 29 29 29 28 28 28 28 28 29 28 27 27 27 27 27 27 26 26 26 26 25
41 41 41 40 41 41 39 38 39 39 39 38 38 36 35 34 34 34 34 33 33 32 32 31 31 31 31 30 30 30 29 30 30 29 28 29 29 29 29 29 29 28 28 27
42 41 41 42 41 39 39 38 38 38 38 38 38 37 38 37 36 35 35 34 34 34 34 33 33 33 33 33 32 32 31 31 31 31 31 30 30 30 30 30 30 30 29 28
42 41 41 41 41 40 39 39 39 38 37 37 37 38 38 38 38 37 37 36 36 35 35 35 35 35 35 35 34 34 34 33 33 33 33 32 32 33 33 32 32 31 30 30
40 41 41 40 39 39 38 38 38 38 38 38 37 37 38 38 38 37 36 37 37 37 36 36 36 36 36 36 36 35 35 34 34 34 33 33 33 34 33 32 32 32 31 31
38 39 40 40 39 38 37 37 37 38 39 38 37 37 38 38 38 37 38 38 37 37 36 36 36 37 37 37 36 36 36 36 35 34 35 35 35 34 33 33 33 33 33 32
Wind_Direction
214 212 209 208 210 214 205 197 197 180 197 4 41 49 38 33 29 29 32 31 33 37 39 39 39 41 42 42 42 43 43 43 43 42 42 42 41 40 39 34 32 33 34 28
215 215 215 214 216 220 216 214 214 221 231 259 296 7 24 17 18 17 21 23 25 31 34 35 38 39 39 40 40 41 42 40 37 37 36 37 35 33 31 32 36 35 37 33
217 216 220 221 223 224 222 227 230 237 240 251 269 291 336 351 355 360 5 10 18 25 30 33 34 34 35 36 37 37 36 36 34 32 32 31 32 29 28 30 31 27 19 19
217 216 221 224 227 229 228 232 236 240 245 251 258 272 299 317 326 336 344 353 3 13 19 24 28 27 28 30 30 30 29 30 30 29 26 26 25 23 25 29 26 20 18 19
217 218 220 223 226 230 231 236 240 245 251 256 260 269 280 290 301 318 329 336 342 353 1 9 15 16 18 20 22 23 24 24 23 24 22 20 19 19 19 22 22 19 24 22
218 220 222 224 226 230 234 240 243 246 251 255 258 264 271 274 287 300 312 319 322 329 340 348 357 3 7 12 13 15 17 17 16 16 16 14 13 14 17 19 16 18 24 24
220 221 224 226 227 231 236 240 243 247 249 252 254 257 263 268 273 282 289 301 308 311 318 329 339 350 356 2 3 3 5 6 7 8 8 7 6 6 9 12 12 14 16 16
223 224 226 229 230 232 236 240 243 248 251 251 253 255 260 266 269 275 281 290 296 299 306 317 328 335 342 346 351 353 352 353 356 358 359 358 358 359 1 1 1 5 6 5
224 225 228 231 231 233 237 240 244 248 250 251 253 256 258 260 265 271 279 284 285 287 299 310 318 322 328 330 335 343 344 345 346 347 346 346 347 348 350 352 351 350 350 350
225 225 227 230 232 234 236 239 241 245 250 252 251 255 258 260 265 269 274 277 280 285 294 302 308 311 319 315 319 330 333 334 333 335 336 337 338 338 339 339 341 339 340 340
226 227 226 228 231 235 236 238 241 246 250 252 254 255 258 258 263 266 268 272 281 286 289 292 302 304 308 311 314 318 321 323 323 326 327 326 330 330 331 330 331 330 329 330
227 228 228 228 231 234 236 239 242 245 249 252 256 256 256 257 260 264 268 271 275 278 280 285 290 294 297 302 306 308 310 313 315 317 319 318 318 318 316 318 321 323 324 319
229 229 229 229 231 233 235 237 241 245 249 252 255 256 256 258 261 262 264 269 270 272 274 276 281 283 286 291 295 298 302 304 306 309 312 311 311 310 308 309 313 311 312 312
230 231 232 233 235 236 237 238 240 244 247 252 255 257 256 258 261 261 261 265 268 270 272 274 276 277 282 286 289 292 295 297 298 300 304 303 303 304 302 302 305 306 307 306
231 232 233 234 235 237 239 240 242 245 249 253 255 256 256 257 257 259 260 262 265 268 270 273 274 276 278 280 284 288 290 290 294 297 300 300 298 299 299 298 300 304 305 305
232 233 234 235 236 237 238 240 242 244 247 251 253 254 255 256 257 257 259 261 264 267 271 272 273 276 279 280 282 284 286 290 293 294 297 297 296 294 294 293 295 299 301 303
236 236 236 238 238 238 238 239 241 243 246 250 252 254 255 256 257 258 260 261 265 268 270 271 272 274 278 279 279 283 284 287 291 293 295 294 297 295 291 291 292 296 298 299
239 239 239 240 239 240 240 240 241 244 246 249 252 253 254 256 256 257 259 260 264 266 266 267 270 273 276 276 277 281 283 286 288 290 292 291 293 293 293 291 290 293 294 295
238 239 241 243 243 243 241 240 241 244 246 249 252 253 253 254 255 256 257 259 262 264 265 267 270 272 272 273 276 279 282 284 286 287 289 289 289 289 290 290 290 290 291 291
237 239 242 243 244 244 242 241 241 243 245 247 251 253 253 253 254 254 256 258 259 261 263 265 268 270 270 273 276 278 280 282 284 286 287 286 285 285 287 288 287 288 289 290
237 238 241 244 245 245 244 242 242 243 245 247 250 251 253 252 254 255 257 258 259 260 261 262 265 267 268 271 274 277 280 281 281 283 285 285 285 283 283 284 285 286 287 287
237 239 241 242 243 244 243 243 243 245 246 248 249 250 251 252 254 256 257 258 259 260 261 261 263 264 265 268 272 275 278 280 282 284 284 284 285 284 281 281 283 284 285 286
238 239 241 243 244 243 242 244 245 244 246 248 249 250 251 253 255 255 256 258 259 260 260 261 263 264 267 269 271 274 275 277 280 282 282 282 282 281 280 280 279 279 281 283
237 238 240 241 242 243 243 244 245 245 247 249 250 252 253 254 255 256 255 256 258 260 261 262 263 265 268 271 271 273 274 276 278 278 278 279 280 279 279 279 279 279 280 279
237 238 239 240 241 241 242 244 245 247 247 248 250 252 254 256 257 256 257 257 258 260 261 263 265 266 267 268 270 273 276 277 277 277 277 279 280 281 280 279 278 279 280 279
238 239 240 240 240 242 244 245 247 248 249 249 250 252 253 255 257 257 257 258 260 261 261 263 264 264 266 269 271 274 276 275 276 277 277 277 278 278 279 280 281 280 280 279